Miscellaneous Local Product
Issued by NWS Hastings, NE

Home | Current Version | Previous Version | Graphics & Text | Print | Product List | Glossary On
Versions: 1 2 3 4 5 6 7 8 9 10 11 12 13 14 15 16 17 18 19 20 21 22 23 24 25 26 27 28 29 30 31 32 33 34 35 36 37 38 39 40 41 42 43 44 45 46 47 48 49 50
000
AXUS43 KGID 301502
MISGRI

GID CWA HOURLY WEATHER ROUNDUP
NATIONAL WEATHER SERVICE HASTINGS NE
900 AM CST FRI JAN 30 2015

NOTE: "FAIR" INDICATES FEW OR NO CLOUDS BELOW 12,000 FEET WITH NO
SIGNIFICANT WEATHER AND/OR OBSTRUCTIONS TO VISIBILITY.

...SOUTH CENTRAL NEBRASKA...

CITY           SKY/WX    TMP DP  RH WIND       PRES   REMARKS
GRAND ISLAND   PTSUNNY   24  20  84 S14       30.46F WCI  12
HASTINGS       PTSUNNY   22  19  89 S8        30.44F WCI  12
KEARNEY        PTSUNNY   25  21  86 S9        30.42F WCI  15
ORD            PTSUNNY   22  19  89 SE7       30.40F WCI  13
YORK           MOSUNNY   18  18 100 S3        30.48S FOG
AURORA         PTSUNNY   23  22  96 S7        30.46F WCI  15
LEXINGTON      PTSUNNY   26  21  83 SE5       30.39F WCI  20
HOLDREGE       PTSUNNY   24  21  87 S12       30.40F WCI  13
HEBRON         PTSUNNY   16  12  86 CALM      30.51S

...NEBRASKA PANHANDLE...

CITY           SKY/WX    TMP DP  RH WIND       PRES   REMARKS
CHADRON        CLOUDY    32  21  64 SW8       30.21S WCI  25
ALLIANCE       CLOUDY    27  21  78 S5        30.21F WCI  22
SCOTTSBLUFF    CLOUDY    29  24  82 CALM      30.21F
SIDNEY         MOCLDY    30  23  75 S8        30.21F WCI  22

...WESTERN AND NORTH CENTRAL NEBRASKA...

CITY           SKY/WX    TMP DP  RH WIND       PRES   REMARKS
VALENTINE      MOCLDY    26  20  77 S5        30.27F WCI  20
AINSWORTH      MOCLDY    27  21  80 S10       30.30S WCI  17
ONEILL         MOSUNNY   24  22  95 S10       30.39F WCI  13
BROKEN BOW     CLOUDY    25  21  85 E5        30.36F WCI  19
IMPERIAL       CLOUDY    29  22  75 SE9       30.29F WCI  20
NORTH PLATTE   MOCLDY    27  22  81 E7        30.33F WCI  19
MCCOOK         CLOUDY    27  21  78 CALM      30.36F

...EASTERN NEBRASKA...

CITY           SKY/WX    TMP DP  RH WIND       PRES   REMARKS
NORFOLK        SUNNY     23  20  88 S10       30.45F WCI  12
SO SIOUX CITY  PTSUNNY   21  17  84 E7        30.52S WCI  12
TEKAMAH        MOSUNNY   20  17  88 SE6       30.54R WCI  12
COLUMBUS       MOSUNNY   19  12  73 CALM      30.50R
ALBION         MOSUNNY   22  19  89 S6        30.44F WCI  15
OMAHA EPPLEY   MOSUNNY   22  17  81 S8        30.55R WCI  12
OFFUTT AFB     SUNNY     21  19  92 SE2       30.54R
MILLARD        SUNNY     20  17  90 CALM      30.54S
LINCOLN        MOSUNNY   19  15  84 CALM      30.53S
NEBRASKA CITY  SUNNY     21  20  97 CALM      30.53S FOG
BEATRICE       PTSUNNY   15  13  93 CALM      30.52S FOG
FALLS CITY     MOSUNNY   19  17  92 CALM      30.55S

...NORTHERN KANSAS...

CITY           SKY/WX    TMP DP  RH WIND       PRES   REMARKS
GOODLAND       CLOUDY    33  25  72 S17       30.30F WCI  22
HILL CITY      CLOUDY    26  20  77 CALM      30.42F
NORTON         SUNNY     28  21  74 S7        30.40R WCI  21
PHILLIPSBURG   SUNNY     25  21  86 E3        30.45F
SMITH CENTER   SUNNY     23  21  93 E9        30.46F WCI  13
BELOIT         SUNNY     25  21  86 SE5       30.49S WCI  19
HAYS           CLOUDY    25  14  63 S5        30.45F WCI  19
RUSSELL        CLOUDY    27  23  85 S6        30.45F WCI  20
CONCORDIA      PTSUNNY   25  23  92 E5        30.49F WCI  19
SALINA         CLOUDY    25  20  81 S5        30.52F WCI  19
TOPEKA         MOSUNNY   23  20  88 W5        30.58R WCI  17



USA.gov is the U.S. government's official web portal to all federal, state and local government web resources and services.